This demonstration page uses our WeatherBlox Daily Observations layout. Learn more.

38.89511, -77.03637

Hourly Observations for November 8, 2017

Temp ( °F °C ) Dew Point ( °F °C ) Humidity (%) Winds ( mph kmh ) Pressure ( in mb ) Visibility ( mi km ) Precip ( " mm )
12:52 am 00:52 Cloudy 42 5.6 40 4.4 92 92 NNW 13 20 30.15 1021 10 16.09344 0.001 0.001
1:52 am 01:52 Cloudy 42 5.6 39 3.9 89 89 NNW 10 17 30.18 1022 10 16.09344 0 0
2:52 am 02:52 Cloudy 42 5.6 39 3.9 89 89 N 15 24 30.18 1022 10 16.09344 0 0
3:52 am 03:52 Cloudy 42 5.6 39 3.9 89 89 N 13 20 30.15 1021 10 16.09344 0 0
4:52 am 04:52 Cloudy 42 5.6 38 3.3 85 85 N 13 20 30.21 1023 10 16.09344 0 0
5:52 am 05:52 Cloudy 42 5.6 38 3.3 85 85 N 15 24 30.21 1023 10 16.09344 0 0
6:52 am 06:52 Cloudy 42 5.6 38 3.3 85 85 N 10 17 30.24 1024 10 16.09344 0 0
7:52 am 07:52 Cloudy 43 6.1 38 3.3 82 82 N 9 15 30.24 1024 10 16.09344 0 0
8:52 am 08:52 Cloudy 43 6.1 37 2.8 80 80 NNE 14 22 30.24 1024 10 16.09344 0 0
9:52 am 09:52 Cloudy 45 7.2 38 3.3 77 77 N 12 19 30.24 1024 10 16.09344 0 0
10:52 am 10:52 Cloudy 45 7.2 38 3.3 77 77 NNE 12 19 30.27 1025 10 16.09344 0 0
11:52 am 11:52 Cloudy 46 7.8 40 4.4 79 79 N 8 13 30.24 1024 10 16.09344 0 0
12:52 pm 12:52 Cloudy 48 8.9 40 4.4 74 74 NNE 10 17 30.21 1023 10 16.09344 0 0
1:52 pm 13:52 Cloudy 49 9.4 41 5 74 74 N 9 15 30.21 1023 10 16.09344 0 0
2:52 pm 14:52 Cloudy 49 9.4 41 5 74 74 N 7 11 30.21 1023 10 16.09344 0 0
3:52 pm 15:52 Cloudy 49 9.4 41 5 74 74 N 10 17 30.24 1024 10 16.09344 0 0
4:52 pm 16:52 Cloudy 49 9.4 41 5 74 74 N 12 19 30.21 1023 10 16.09344 0 0
5:52 pm 17:52 Cloudy 49 9.4 41 5 74 74 N 12 19 30.24 1024 10 16.09344 0 0
6:09 pm 18:09 Cloudy 49 9.4 41 5 74 74 N 9 15 30.24 1024 10 16.09344 0 0
6:52 pm 18:52 Cloudy 48 8.9 41 5 77 77 N 8 13 30.24 1024 10 16.09344 0 0
7:52 pm 19:52 Cloudy 48 8.9 40 4.4 74 74 N 10 17 30.24 1024 10 16.09344 0 0
8:52 pm 20:52 Cloudy 47 8.3 39 3.9 74 74 N 10 17 30.24 1024 10 16.09344 0 0
9:52 pm 21:52 Cloudy 47 8.3 39 3.9 74 74 NNE 9 15 30.24 1024 10 16.09344 0 0
10:52 pm 22:52 Cloudy 47 8.3 39 3.9 74 74 N 6 9 30.24 1024 10 16.09344 0 0
11:52 pm 23:52 Mostly Cloudy 46 7.8 39 3.9 77 77 NNE 10 17 30.21 1023 10 16.09344 0 0

Powered by AerisWeather